Time,TemperatureF,DewpointF,PressureIn,WindDirection,WindDirectionDegrees,WindSpeedMPH,WindSpeedGustMPH,Humidity,HourlyPrecipIn,Conditions,Clouds,dailyrainin,SoftwareType,DateUTC
2013-09-11 00:02:00,72.2,63.0,30.02,NNW,338,0.0,3.0,73,0.00,,,0.00,weatherlink.com 1.10,2013-09-11 05:02:00,
2013-09-11 00:17:00,72.3,62.0,30.02,NNW,338,0.0,0.0,71,0.00,,,0.00,weatherlink.com 1.10,2013-09-11 05:17:00,
2013-09-11 00:32:00,72.1,63.0,30.02,NNW,338,0.0,1.0,72,0.00,,,0.00,weatherlink.com 1.10,2013-09-11 05:32:00,
2013-09-11 00:47:00,71.8,63.0,30.02,NNW,338,0.0,1.0,73,0.00,,,0.00,weatherlink.com 1.10,2013-09-11 05:47:00,
2013-09-11 01:02:00,71.5,64.0,30.03,NNW,338,0.0,0.0,76,0.00,,,0.00,weatherlink.com 1.10,2013-09-11 06:02:00,
2013-09-11 01:17:00,70.9,63.0,30.03,NNW,337,0.0,0.0,77,0.00,,,0.00,weatherlink.com 1.10,2013-09-11 06:17:00,
2013-09-11 01:32:00,70.3,63.0,30.03,NNW,338,0.0,0.0,78,0.00,,,0.00,weatherlink.com 1.10,2013-09-11 06:32:00,
2013-09-11 01:47:00,69.9,63.0,30.04,NNW,337,0.0,0.0,79,0.00,,,0.00,weatherlink.com 1.10,2013-09-11 06:47:00,
2013-09-11 02:02:00,69.6,63.0,30.03,NNW,338,0.0,0.0,79,0.00,,,0.00,weatherlink.com 1.10,2013-09-11 07:02:00,
2013-09-11 02:17:00,69.6,63.0,30.03,NNW,338,2.0,4.0,79,0.00,,,0.00,weatherlink.com 1.10,2013-09-11 07:17:00,
2013-09-11 02:32:00,69.7,63.0,30.03,NNW,338,0.0,3.0,78,0.00,,,0.00,weatherlink.com 1.10,2013-09-11 07:32:00,
2013-09-11 02:47:00,69.8,63.0,30.04,NW,317,1.0,6.0,78,0.00,,,0.00,weatherlink.com 1.10,2013-09-11 07:47:00,
2013-09-11 03:02:00,70.1,63.0,30.04,West,277,0.0,7.0,78,0.00,,,0.00,weatherlink.com 1.10,2013-09-11 08:02:00,
2013-09-11 03:17:00,70.2,63.0,30.04,West,276,0.0,6.0,78,0.00,,,0.00,weatherlink.com 1.10,2013-09-11 08:17:00,
2013-09-11 03:32:00,70.2,63.0,30.04,WNW,293,2.0,4.0,78,0.00,,,0.00,weatherlink.com 1.10,2013-09-11 08:32:00,
2013-09-11 03:47:00,70.5,63.0,30.05,WNW,293,0.0,3.0,78,0.00,,,0.00,weatherlink.com 1.10,2013-09-11 08:47:00,
2013-09-11 04:02:00,70.4,63.0,30.07,SSW,213,4.0,4.0,76,0.00,,,0.00,weatherlink.com 1.10,2013-09-11 09:02:00,
2013-09-11 04:17:00,69.5,62.0,30.05,SW,221,0.0,0.0,78,0.00,,,0.00,weatherlink.com 1.10,2013-09-11 09:17:00,
2013-09-11 04:32:00,69.0,62.0,30.06,SW,221,0.0,1.0,79,0.00,,,0.00,weatherlink.com 1.10,2013-09-11 09:32:00,
2013-09-11 04:47:00,68.8,63.0,30.05,West,273,0.0,3.0,81,0.00,,,0.00,weatherlink.com 1.10,2013-09-11 09:47:00,
2013-09-11 05:02:00,68.7,63.0,30.05,West,273,0.0,2.0,81,0.00,,,0.00,weatherlink.com 1.10,2013-09-11 10:02:00,
2013-09-11 05:17:00,68.8,63.0,30.05,West,273,0.0,0.0,81,0.00,,,0.00,weatherlink.com 1.10,2013-09-11 10:17:00,
2013-09-11 05:32:00,68.9,63.0,30.06,West,273,0.0,2.0,81,0.00,,,0.00,weatherlink.com 1.10,2013-09-11 10:32:00,
2013-09-11 05:47:00,69.1,62.0,30.06,West,275,0.0,6.0,79,0.00,,,0.00,weatherlink.com 1.10,2013-09-11 10:47:00,
2013-09-11 06:02:00,68.8,61.0,30.07,West,275,0.0,2.0,77,0.00,,,0.00,weatherlink.com 1.10,2013-09-11 11:02:00,
2013-09-11 06:17:00,68.4,61.0,30.07,WNW,283,1.0,3.0,77,0.00,,,0.00,weatherlink.com 1.10,2013-09-11 11:17:00,
2013-09-11 06:33:00,68.6,62.0,30.07,West,281,0.0,4.0,79,0.00,,,0.00,weatherlink.com 1.10,2013-09-11 11:33:00,
2013-09-11 06:47:00,68.5,63.0,30.07,West,281,0.0,7.0,81,0.00,,,0.00,weatherlink.com 1.10,2013-09-11 11:47:00,
2013-09-11 07:02:00,68.2,62.0,30.08,WNW,290,0.0,7.0,81,0.00,,,0.00,weatherlink.com 1.10,2013-09-11 12:02:00,
2013-09-11 07:17:00,68.1,63.0,30.08,WNW,286,4.0,5.0,83,0.00,,,0.00,weatherlink.com 1.10,2013-09-11 12:17:00,
2013-09-11 07:32:00,68.3,63.0,30.07,WSW,237,0.0,8.0,84,0.00,,,0.00,weatherlink.com 1.10,2013-09-11 12:32:00,
2013-09-11 07:47:00,68.1,63.0,30.07,West,271,0.0,4.0,83,0.00,,,0.00,weatherlink.com 1.10,2013-09-11 12:47:00,
2013-09-11 08:02:00,68.0,63.0,30.07,WNW,284,0.0,7.0,83,0.00,,,0.00,weatherlink.com 1.10,2013-09-11 13:02:00,
2013-09-11 08:17:00,68.5,63.0,30.07,WNW,284,2.0,2.0,83,0.00,,,0.00,weatherlink.com 1.10,2013-09-11 13:17:00,
2013-09-11 08:32:00,68.9,63.0,30.07,SW,225,4.0,4.0,82,0.00,,,0.00,weatherlink.com 1.10,2013-09-11 13:32:00,
2013-09-11 08:47:00,69.1,63.0,30.07,SW,224,0.0,2.0,81,0.00,,,0.00,weatherlink.com 1.10,2013-09-11 13:47:00,
2013-09-11 09:02:00,69.5,63.0,30.07,SW,226,0.0,2.0,80,0.00,,,0.00,weatherlink.com 1.10,2013-09-11 14:02:00,
2013-09-11 09:17:00,70.2,63.0,30.08,WSW,254,4.0,5.0,79,0.00,,,0.00,weatherlink.com 1.10,2013-09-11 14:17:00,
2013-09-11 09:32:00,70.8,64.0,30.09,West,273,0.0,7.0,79,0.00,,,0.00,weatherlink.com 1.10,2013-09-11 14:32:00,
2013-09-11 09:47:00,71.7,64.0,30.08,WNW,286,1.0,3.0,77,0.00,,,0.00,weatherlink.com 1.10,2013-09-11 14:47:00,
2013-09-11 10:02:00,71.9,64.0,30.09,West,281,0.0,7.0,77,0.00,,,0.00,weatherlink.com 1.10,2013-09-11 15:02:00,
2013-09-11 10:17:00,71.9,65.0,30.09,WNW,283,0.0,7.0,78,0.00,,,0.00,weatherlink.com 1.10,2013-09-11 15:17:00,
2013-09-11 10:32:00,72.2,65.0,30.09,WNW,283,6.0,8.0,78,0.00,,,0.00,weatherlink.com 1.10,2013-09-11 15:32:00,
2013-09-11 10:47:00,72.8,65.0,30.10,West,277,0.0,5.0,77,0.00,,,0.00,weatherlink.com 1.10,2013-09-11 15:47:00,
2013-09-11 11:03:00,73.6,66.0,30.09,WNW,286,1.0,8.0,76,0.00,,,0.00,weatherlink.com 1.10,2013-09-11 16:03:00,
2013-09-11 11:18:00,75.4,67.0,30.09,WNW,284,3.0,9.0,74,0.00,,,0.00,weatherlink.com 1.10,2013-09-11 16:18:00,
2013-09-11 11:33:00,76.9,67.0,30.09,West,281,2.0,4.0,71,0.00,,,0.00,weatherlink.com 1.10,2013-09-11 16:33:00,
2013-09-11 11:48:00,78.1,66.0,30.09,West,281,1.0,9.0,66,0.00,,,0.00,weatherlink.com 1.10,2013-09-11 16:48:00,
2013-09-11 12:03:00,79.6,66.0,30.09,West,277,4.0,7.0,63,0.00,,,0.00,weatherlink.com 1.10,2013-09-11 17:03:00,
2013-09-11 12:18:00,80.5,65.0,30.09,West,268,1.0,9.0,59,0.00,,,0.00,weatherlink.com 1.10,2013-09-11 17:18:00,
2013-09-11 12:33:00,81.9,65.0,30.09,South,188,2.0,8.0,56,0.00,,,0.00,weatherlink.com 1.10,2013-09-11 17:33:00,
2013-09-11 12:48:00,82.1,64.0,30.08,West,280,2.0,5.0,55,0.00,,,0.00,weatherlink.com 1.10,2013-09-11 17:48:00,
2013-09-11 13:03:00,82.8,62.0,30.09,West,279,0.0,5.0,49,0.00,,,0.00,weatherlink.com 1.10,2013-09-11 18:03:00,
2013-09-11 13:18:00,83.6,62.0,30.09,WNW,292,0.0,5.0,49,0.00,,,0.00,weatherlink.com 1.10,2013-09-11 18:18:00,
2013-09-11 13:33:00,84.0,62.0,30.08,WNW,284,0.0,9.0,48,0.00,,,0.00,weatherlink.com 1.10,2013-09-11 18:33:00,
2013-09-11 13:48:00,84.3,62.0,30.08,West,281,1.0,10.0,47,0.00,,,0.00,weatherlink.com 1.10,2013-09-11 18:48:00,
2013-09-11 14:03:00,84.6,60.0,30.08,WNW,300,4.0,10.0,44,0.00,,,0.00,weatherlink.com 1.10,2013-09-11 19:03:00,
2013-09-11 14:18:00,83.0,59.0,30.08,SW,228,0.0,9.0,44,0.00,,,0.00,weatherlink.com 1.10,2013-09-11 19:18:00,
2013-09-11 14:33:00,82.6,59.0,30.08,WNW,290,3.0,8.0,44,0.00,,,0.00,weatherlink.com 1.10,2013-09-11 19:33:00,
2013-09-11 14:48:00,82.0,58.0,30.07,WNW,294,0.0,8.0,44,0.00,,,0.00,weatherlink.com 1.10,2013-09-11 19:48:00,
2013-09-11 15:03:00,82.5,57.0,30.07,WSW,254,5.0,9.0,42,0.00,,,0.00,weatherlink.com 1.10,2013-09-11 20:03:00,
2013-09-11 15:18:00,82.7,58.0,30.07,West,274,1.0,11.0,43,0.00,,,0.00,weatherlink.com 1.10,2013-09-11 20:18:00,
2013-09-11 15:33:00,83.4,59.0,30.07,West,271,0.0,10.0,43,0.00,,,0.00,weatherlink.com 1.10,2013-09-11 20:33:00,
2013-09-11 15:48:00,83.4,59.0,30.07,WNW,298,0.0,9.0,44,0.00,,,0.00,weatherlink.com 1.10,2013-09-11 20:48:00,
2013-09-11 16:03:00,83.0,61.0,30.07,West,280,9.0,9.0,47,0.00,,,0.00,weatherlink.com 1.10,2013-09-11 21:03:00,
2013-09-11 16:18:00,82.7,60.0,30.07,WNW,298,4.0,9.0,46,0.00,,,0.00,weatherlink.com 1.10,2013-09-11 21:18:00,
2013-09-11 16:33:00,83.2,60.0,30.07,WNW,291,0.0,10.0,45,0.00,,,0.00,weatherlink.com 1.10,2013-09-11 21:33:00,
2013-09-11 16:48:00,82.6,59.0,30.06,West,279,8.0,10.0,44,0.00,,,0.00,weatherlink.com 1.10,2013-09-11 21:48:00,
2013-09-11 17:03:00,81.8,59.0,30.06,NW,309,1.0,5.0,46,0.00,,,0.00,weatherlink.com 1.10,2013-09-11 22:03:00,
2013-09-11 17:18:00,82.1,59.0,30.07,NNW,342,4.0,6.0,45,0.00,,,0.00,weatherlink.com 1.10,2013-09-11 22:18:00,
2013-09-11 17:33:00,82.0,59.0,30.07,NNW,337,4.0,10.0,46,0.00,,,0.00,weatherlink.com 1.10,2013-09-11 22:33:00,
2013-09-11 17:48:00,80.5,58.0,30.07,NNW,331,3.0,6.0,46,0.00,,,0.00,weatherlink.com 1.10,2013-09-11 22:48:00,
2013-09-11 18:03:00,80.2,57.0,30.06,NW,325,5.0,9.0,45,0.00,,,0.00,weatherlink.com 1.10,2013-09-11 23:03:00,
2013-09-11 18:18:00,79.5,57.0,30.07,NNW,332,0.0,4.0,46,0.00,,,0.00,weatherlink.com 1.10,2013-09-11 23:18:00,
2013-09-11 18:33:00,78.5,57.0,30.06,NNW,341,0.0,6.0,48,0.00,,,0.00,weatherlink.com 1.10,2013-09-11 23:33:00,
2013-09-11 18:48:00,77.7,57.0,30.07,NNW,337,0.0,5.0,49,0.00,,,0.00,weatherlink.com 1.10,2013-09-11 23:48:00,
2013-09-11 19:03:00,77.1,56.0,30.06,NNW,337,0.0,5.0,49,0.00,,,0.00,weatherlink.com 1.10,2013-09-12 00:03:00,
2013-09-11 19:18:00,76.3,56.0,30.06,NNW,337,0.0,4.0,50,0.00,,,0.00,weatherlink.com 1.10,2013-09-12 00:18:00,
2013-09-11 19:33:00,75.4,56.0,30.06,NNW,335,0.0,0.0,51,0.00,,,0.00,weatherlink.com 1.10,2013-09-12 00:33:00,
2013-09-11 19:48:00,74.3,56.0,30.07,NNW,335,0.0,1.0,53,0.00,,,0.00,weatherlink.com 1.10,2013-09-12 00:48:00,
2013-09-11 20:03:00,73.1,56.0,30.07,NNW,335,0.0,0.0,56,0.00,,,0.00,weatherlink.com 1.10,2013-09-12 01:03:00,
2013-09-11 20:18:00,72.4,58.0,30.08,NNW,335,0.0,0.0,61,0.00,,,0.00,weatherlink.com 1.10,2013-09-12 01:18:00,
2013-09-11 20:33:00,72.0,59.0,30.09,NNW,335,0.0,1.0,63,0.00,,,0.00,weatherlink.com 1.10,2013-09-12 01:33:00,
2013-09-11 20:48:00,71.7,59.0,30.09,NNW,335,0.0,1.0,64,0.00,,,0.00,weatherlink.com 1.10,2013-09-12 01:48:00,
2013-09-11 21:03:00,71.4,57.0,30.10,NNW,334,0.0,1.0,60,0.00,,,0.00,weatherlink.com 1.10,2013-09-12 02:03:00,
2013-09-11 21:18:00,71.4,56.0,30.10,NNW,334,0.0,2.0,59,0.00,,,0.00,weatherlink.com 1.10,2013-09-12 02:18:00,
2013-09-11 21:33:00,71.1,55.0,30.09,NNW,334,0.0,0.0,58,0.00,,,0.00,weatherlink.com 1.10,2013-09-12 02:33:00,
2013-09-11 21:48:00,70.9,55.0,30.09,NNW,334,0.0,2.0,58,0.00,,,0.00,weatherlink.com 1.10,2013-09-12 02:48:00,
2013-09-11 22:18:00,70.4,55.0,30.09,NNW,335,0.0,0.0,58,0.00,,,0.00,weatherlink.com 1.10,2013-09-12 03:18:00,
2013-09-11 22:33:00,69.9,56.0,30.09,NNW,335,0.0,0.0,62,0.00,,,0.00,weatherlink.com 1.10,2013-09-12 03:33:00,
2013-09-11 22:48:00,69.0,56.0,30.09,NNW,335,0.0,1.0,63,0.00,,,0.00,weatherlink.com 1.10,2013-09-12 03:48:00,
2013-09-11 23:03:00,68.3,56.0,30.08,NNW,334,0.0,0.0,66,0.00,,,0.00,weatherlink.com 1.10,2013-09-12 04:03:00,
2013-09-11 23:18:00,67.8,56.0,30.08,NNW,334,0.0,0.0,67,0.00,,,0.00,weatherlink.com 1.10,2013-09-12 04:18:00,
2013-09-11 23:34:00,67.9,56.0,30.08,NNW,334,0.0,0.0,67,0.00,,,0.00,weatherlink.com 1.10,2013-09-12 04:34:00,
2013-09-11 23:49:00,67.4,56.0,30.08,NNW,335,0.0,0.0,67,0.00,,,0.00,weatherlink.com 1.10,2013-09-12 04:49:00,